Weather History for Middleton, WI

Change the Weather History Date:

Friday, February 21, 2014

  Actual Average (KMSN) Record (KMSN)
Temperature  
Mean Temperature 28 °F 25 °F  
Max Temperature 36 °F 33 °F 60 °F (1930)
Min Temperature 19 °F 17 °F -15 °F (1873)
Degree Days  
Heating Degree Days 38 40  
Month to date heating degree days 902  
Since 1 July heating degree days 5215  
Cooling Degree Days 0 0  
Month to date cooling degree days 0  
Year to date cooling degree days 0  
Moisture  
Dew Point 14 °F    
Average Humidity 65    
Maximum Humidity 82    
Minimum Humidity 52    
Precipitation  
Precipitation 0.00 in 0.06 in 1.54 in (1922)
Month to date precipitation 1.03  
Year to date precipitation 2.26  
Snow  
Snow 0.00 in 0.40 in 7.80 in (1993)
Month to date snowfall 8.2  
Since 1 July snowfall 38.7  
Snow Depth -    
Sea Level Pressure  
Sea Level Pressure 29.49 in    
Wind  
Wind Speed 24 mph (WSW)    
Max Wind Speed 32 mph    
Max Gust Speed 44 mph    
Visibility 9 miles    
Events      
T = Trace of Precipitation, MM = Missing Value Source: NWS Daily Summary

Daily Weather History Graph

Daily Weather History Graph

Search for Another Location

Airport:

Trip Planner

Search our weather history database for the weather conditions in past years. The results will help you decide how hot, cold, wet, or windy it might be!

Date:

Astronomy

Feb. 21, 2014 Rise Set
Actual Time 6:46 AM CST 5:37 PM CST
Civil Twilight 6:18 AM CST 6:06 PM CST
Nautical Twilight 5:45 AM CST 6:39 PM CST
Astronomical Twilight 5:12 AM CST 7:12 PM CST
Moon No Moon Rise 10:00 AM CST (2/21)
Length of Visible Light 11h 47m
Length of Day
10h 50m
Waning Gibbous, 60% of the Moon is Illuminated
Feb 21
Waning Gibbous
Feb 22
Last Quarter
Mar 1
New
Mar 8
First Quarter
Mar 16
Full

Hourly Weather History & Observations

Time (CST) Temp. Windchill Dew Point Humidity Pressure Visibility Wind Dir Wind Speed Gust Speed Precip Events Conditions
12:15 AM 36.0 °F 23.9 °F 30.9 °F 82% 29.15 in 10.0 mi WSW 25.3 mph 34.5 mph N/A   Overcast
12:35 AM 35.1 °F 24.1 °F 29.7 °F 81% 29.16 in 10.0 mi WSW 19.6 mph 29.9 mph N/A   Overcast
12:55 AM 34.2 °F 22.6 °F 28.0 °F 78% 29.16 in 10.0 mi WSW 20.7 mph 35.7 mph N/A   Overcast
1:15 AM 32.4 °F 19.1 °F 26.1 °F 78% 29.16 in 10.0 mi WSW 25.3 mph 35.7 mph N/A   Overcast
1:35 AM 30.9 °F 17.2 °F 24.3 °F 76% 29.16 in 10.0 mi WSW 25.3 mph 34.5 mph N/A   Overcast
1:55 AM 29.3 °F 15.6 °F 22.8 °F 77% 29.19 in 10.0 mi SW 23.0 mph 33.4 mph N/A   Overcast
2:15 AM 28.2 °F 14.2 °F 21.2 °F 75% 29.21 in 10.0 mi WSW 23.0 mph 35.7 mph N/A   Overcast
2:35 AM 27.3 °F 12.4 °F 20.3 °F 75% 29.23 in 10.0 mi WSW 25.3 mph 32.2 mph N/A   Overcast
2:55 AM 26.2 °F 10.6 °F 19.0 °F 74% 29.25 in 10.0 mi West 26.5 mph 35.7 mph N/A   Overcast
3:15 AM 25.2 °F 10.4 °F 18.1 °F 75% 29.26 in 10.0 mi WSW 21.9 mph 34.5 mph N/A   Overcast
3:35 AM 23.9 °F 7.5 °F 16.5 °F 73% 29.27 in 10.0 mi WSW 26.5 mph 40.3 mph N/A   Overcast
3:55 AM 23.2 °F 7.1 °F 15.8 °F 73% 29.29 in 10.0 mi WSW 24.2 mph 35.7 mph N/A   Overcast
4:15 AM 22.8 °F 5.7 °F 14.9 °F 72% 29.30 in 10.0 mi West 27.6 mph 33.4 mph N/A   Overcast
4:35 AM 22.6 °F 4.9 °F 14.4 °F 71% 29.31 in 10.0 mi West 29.9 mph 40.3 mph N/A   Overcast
4:55 AM 22.1 °F 5.1 °F 14.0 °F 71% 29.32 in 10.0 mi WSW 26.5 mph 35.7 mph N/A   Overcast
5:15 AM 21.6 °F 4.0 °F 13.8 °F 72% 29.33 in 7.0 mi WSW 27.6 mph 40.3 mph N/A   Overcast
5:35 AM 21.0 °F 3.0 °F 12.7 °F 70% 29.35 in 10.0 mi West 28.8 mph 40.3 mph N/A   Overcast
5:55 AM 21.2 °F 3.9 °F 13.6 °F 73% 29.35 in 7.0 mi WSW 26.5 mph 34.5 mph N/A   Overcast
6:15 AM 20.7 °F 2.8 °F 12.2 °F 70% 29.36 in 7.0 mi WSW 27.6 mph 40.3 mph N/A   Overcast
6:35 AM 20.3 °F 2.0 °F 12.9 °F 73% 29.37 in 5.0 mi WSW 28.8 mph 38.0 mph N/A   Overcast
6:55 AM 19.9 °F 1.3 °F 11.8 °F 71% 29.37 in 5.0 mi WSW 29.9 mph 38.0 mph N/A   Overcast
7:15 AM 19.4 °F 0.8 °F 12.2 °F 74% 29.38 in 2.5 mi WSW 28.8 mph 39.1 mph N/A   Overcast
7:35 AM 19.6 °F 2.0 °F 12.7 °F 75% 29.39 in 2.0 mi WSW 25.3 mph 36.8 mph N/A   Overcast
7:55 AM 19.8 °F 3.7 °F 11.5 °F 70% 29.40 in 5.0 mi WSW 20.7 mph 43.7 mph N/A   Overcast
8:15 AM 19.6 °F 0.5 °F 11.3 °F 70% 29.39 in 4.0 mi WSW 31.1 mph 41.4 mph N/A   Overcast
8:35 AM 20.3 °F 1.2 °F 12.0 °F 70% 29.40 in 4.0 mi West 32.2 mph 39.1 mph N/A   Overcast
8:55 AM 20.3 °F 1.7 °F 11.3 °F 68% 29.41 in 5.0 mi WSW 29.9 mph 39.1 mph N/A   Overcast
9:15 AM 20.8 °F 4.0 °F 11.5 °F 67% 29.42 in 5.0 mi WSW 24.2 mph 38.0 mph N/A   Overcast
9:35 AM 21.0 °F 5.0 °F 11.8 °F 68% 29.43 in 7.0 mi WSW 21.9 mph 39.1 mph N/A   Overcast
9:55 AM 21.6 °F 3.7 °F 11.3 °F 65% 29.44 in 5.0 mi West 28.8 mph 35.7 mph N/A   Overcast
10:15 AM 22.5 °F 4.7 °F 12.9 °F 67% 29.45 in 4.0 mi WSW 29.9 mph 38.0 mph N/A   Overcast
10:35 AM 22.6 °F 5.2 °F 11.5 °F 62% 29.45 in 10.0 mi WSW 28.8 mph 39.1 mph N/A   Overcast
10:55 AM 22.5 °F 6.2 °F 12.4 °F 65% 29.47 in 7.0 mi WSW 24.2 mph 36.8 mph N/A   Overcast
11:15 AM 23.5 °F 6.4 °F 12.9 °F 64% 29.47 in 7.0 mi WSW 28.8 mph 39.1 mph N/A   Overcast
11:35 AM 24.3 °F 7.4 °F 12.7 °F 62% 29.48 in 10.0 mi WSW 28.8 mph 36.8 mph N/A   Overcast
11:55 AM 25.3 °F 9.1 °F 12.7 °F 59% 29.49 in 10.0 mi West 27.6 mph 33.4 mph N/A   Overcast
12:15 PM 25.5 °F 9.1 °F 12.7 °F 58% 29.50 in 10.0 mi West 28.8 mph 38.0 mph N/A   Mostly Cloudy
12:35 PM 26.1 °F 10.7 °F 12.6 °F 57% 29.51 in 10.0 mi WSW 25.3 mph 38.0 mph N/A   Scattered Clouds
12:55 PM 26.1 °F 10.7 °F 12.6 °F 57% 29.51 in 10.0 mi West 25.3 mph 36.8 mph N/A   Scattered Clouds
1:15 PM 26.6 °F 10.6 °F 12.2 °F 55% 29.52 in 10.0 mi WSW 28.8 mph 41.4 mph N/A   Scattered Clouds
1:35 PM 27.0 °F 12.5 °F 12.2 °F 54% 29.53 in 10.0 mi WSW 23.0 mph 33.4 mph N/A   Clear
1:55 PM 27.5 °F 13.2 °F 12.4 °F 53% 29.53 in 10.0 mi West 23.0 mph 36.8 mph N/A   Clear
2:15 PM 27.5 °F 14.2 °F 12.6 °F 54% 29.54 in 10.0 mi WSW 19.6 mph 34.5 mph N/A   Clear
2:35 PM 28.0 °F 13.9 °F 12.9 °F 53% 29.55 in 10.0 mi WSW 23.0 mph 33.4 mph N/A   Clear
2:55 PM 28.0 °F 14.3 °F 12.4 °F 52% 29.56 in 10.0 mi West 21.9 mph 34.5 mph N/A   Clear
3:15 PM 27.5 °F 11.5 °F 12.6 °F 54% 29.57 in 10.0 mi WSW 29.9 mph 36.8 mph N/A   Clear
3:35 PM 27.9 °F 14.0 °F 12.6 °F 53% 29.58 in 10.0 mi WSW 21.9 mph 32.2 mph N/A   Clear
3:55 PM 27.5 °F 12.3 °F 11.8 °F 52% 29.59 in 10.0 mi West 26.5 mph 36.8 mph N/A   Clear
4:15 PM 27.5 °F 13.9 °F 11.8 °F 52% 29.60 in 10.0 mi WSW 20.7 mph 29.9 mph N/A   Clear
4:35 PM 27.1 °F 14.1 °F 12.0 °F 53% 29.62 in 10.0 mi WSW 18.4 mph 25.3 mph N/A   Clear
4:55 PM 26.1 °F 11.0 °F 11.5 °F 54% 29.62 in 10.0 mi WSW 24.2 mph 33.4 mph N/A   Clear
5:15 PM 25.3 °F 11.4 °F 11.5 °F 56% 29.63 in 10.0 mi WSW 19.6 mph 34.5 mph N/A   Clear
5:35 PM 24.3 °F 10.0 °F 11.3 °F 58% 29.65 in 10.0 mi WSW 19.6 mph 28.8 mph N/A   Clear
5:55 PM 23.7 °F 9.3 °F 11.3 °F 59% 29.65 in 10.0 mi WSW 19.6 mph 31.1 mph N/A   Clear
6:15 PM 23.2 °F 7.1 °F 11.1 °F 60% 29.67 in 10.0 mi WSW 24.2 mph 31.1 mph N/A   Clear
6:35 PM 23.0 °F 7.6 °F 10.9 °F 60% 29.68 in 10.0 mi West 21.9 mph 27.6 mph N/A   Clear
6:55 PM 22.8 °F 6.3 °F 10.8 °F 60% 29.68 in 10.0 mi WSW 25.3 mph 34.5 mph N/A   Clear
7:15 PM 22.3 °F 7.0 °F 10.8 °F 61% 29.70 in 10.0 mi WSW 20.7 mph 32.2 mph N/A   Clear
7:35 PM 21.9 °F 6.9 °F 10.4 °F 61% 29.71 in 10.0 mi West 19.6 mph 26.5 mph N/A   Clear
7:55 PM 21.9 °F 6.9 °F 10.4 °F 61% 29.72 in 10.0 mi WSW 19.6 mph 29.9 mph N/A   Clear
8:15 PM 21.6 °F 5.7 °F 10.2 °F 62% 29.73 in 10.0 mi West 21.9 mph - N/A   Clear
8:35 PM 21.0 °F 5.7 °F 10.0 °F 63% 29.73 in 10.0 mi West 19.6 mph 24.2 mph N/A   Clear
8:55 PM 20.8 °F 6.4 °F 10.0 °F 63% 29.73 in 10.0 mi West 17.3 mph 27.6 mph N/A   Clear
9:15 PM 20.8 °F 6.8 °F 9.9 °F 63% 29.74 in 10.0 mi West 16.1 mph 21.9 mph N/A   Clear
9:35 PM 20.7 °F 6.1 °F 9.7 °F 63% 29.75 in 10.0 mi West 17.3 mph 21.9 mph N/A   Clear
9:55 PM 20.7 °F 6.6 °F 9.5 °F 62% 29.75 in 10.0 mi West 16.1 mph 24.2 mph N/A   Clear
10:15 PM 20.3 °F 7.2 °F 9.5 °F 63% 29.75 in 10.0 mi West 13.8 mph 20.7 mph N/A   Clear
10:35 PM 20.3 °F 5.7 °F 9.5 °F 63% 29.75 in 10.0 mi West 17.3 mph 23.0 mph N/A   Clear
10:55 PM 20.3 °F 6.1 °F 9.9 °F 64% 29.75 in 10.0 mi West 16.1 mph 20.7 mph N/A   Clear
11:15 PM 20.5 °F 6.4 °F 9.9 °F 64% 29.75 in 10.0 mi West 16.1 mph 23.0 mph N/A   Clear
11:35 PM 20.3 °F 6.1 °F 9.9 °F 64% 29.75 in 10.0 mi West 16.1 mph 20.7 mph N/A   Clear
11:55 PM 20.3 °F 7.7 °F 9.9 °F 64% 29.75 in 10.0 mi West 12.7 mph - N/A   Clear